Location: Julian California
(33.0790°N, 116.6010°W)
Time: 02:40:44
(UTC-07:00)

Cosmos 2184 Rocket - Pass Details

Date: 12 July 2018
Orbit: 959 x 1002 km, 82.9° (Epoch: 20 July)

Event Time Altitude Azimuth Distance (km) Brightness Sun altitude
Rises 21:44:32 0° 352° (N) 3,665 7.9 -19.2°
Reaches altitude 10° 21:47:03 10° 351° (N) 2,709 7.1 -19.5°
Maximum altitude 21:53:14 76° 267° (W) 989 4.0 -20.5°
Enters shadow 21:57:04 24° 184° (S) 1,851 5.1 -21.0°
